STARLINK-33800, 63576

Orbit data source: Space-Track

STARLINK-33800, 63576 is a payload satellite owned by SpaceX/Seattle (US) in LEO that was launched on Mon, 14 Apr 2025 UTC via an FALCON 9 launch vehicle from the Air Force Eastern Test Range (AFETR). Payload-class satellites include a variety of spacecraft equipped with specific instruments for various scientific and technological missions. These include communications satellites like Starlink; space stations such as the ISS; scientific satellites like the Hubble; Earth observation satellites from companies like Planet Labs, Umbra, and HawkEye 360; GPS; miniature CubeSats for education and research; and military/defense satellites.

Loading next visibility...
Identifier
63576, 2025-076H
Orbit
LEO
Country
Flag of USUS
Related business
Manufacturer
SpaceX/Seattle
Mission
Operational Commercial Communications
Bus & Motor
STARLINK V2MO, Unknown motor
Mass
575 kg wet, ~530 kg dry
Launch date (UTC)
2025-04-14 (8 months ago)
Launch vehicle
FALCON 9
Launch site
Air Force Eastern Test Range (AFETR)
Object type
Payload
Rocket body
Debris
Shape & HBR
Box + 2 Pan, 17.7 m
Radar Cross Section
36.964 m², Large (>1 m²)

Expand to show TLE details & history
Last TLE update: 16 hours ago

TLE from 16 hours ago
0 STARLINK-33800
1 63576U 25076H   25348.30172400  .00024544  00000-0  89913-3 0  9998
2 63576  42.9976  83.7370 0000657 238.0413 122.0375 15.27555751 38771
Epoch: 2025-12-14T07:14Z
TLE epoch observation values (Epoch: 2025-12-14T07:14:28.953Z)
Latitude
-0.00001°
Longitude
-108.10024°
Altitude
483.136 km
Speed
7.626 km/s
True Right ascension
05h 34m 56s
True Declination
0° 00' 00"
Sunlit
Object was in full shadow at epoch
Visualization orbit readout
Latitude
Unknown
Longitude
Unknown
Altitude
Unknown
Speed
Unknown
Apparent Right ascension
Unknown
Apparent Declination
Unknown
Sunlit
N/A
Visualization observer readout
Local Sidereal Time
21:23:38
Azimuth
Unknown
Elevation
Unknown
Doppler factor
Unknown
Orbital elements
Apogee altitude
485.518 km
Perigee altitude
484.616 km
Semi-major axis
6,863.204 km
Eccentricity
0.00007
Inclination
42.9976°
RAAN
83.737°
Arg. of periapsis
238.0413°
True anomaly
122.04388°
Mean anomaly
122.0375°
Eccentric anomaly
122.04069°
Mean motion
3.81727 °/min
Orbital period
94.31 mins
BSTAR
0.00089913
Loading maneuver chart data...
Computing Atmospheric mass density...
Loading historical data...
Loading historical data...
Loading historical data...
Loading historical data...
Loading historical data...
Loading historical data...
Loading historical data...

Documentation

Showing up to 5 results
|